Time,TemperatureF,DewpointF,PressureIn,WindDirection,WindDirectionDegrees,WindSpeedMPH,WindSpeedGustMPH,Humidity,HourlyPrecipIn,Conditions,Clouds,dailyrainin,SolarRadiationWatts/m^2,SoftwareType,DateUTC
2013-09-15 01:00:00,45.0,44.0,-100.00,ESE,112,0.0,-999.0,93,-99.99,,,-99.99,0.000000,,2013-09-15 05:00:00,
2013-09-15 01:42:00,45.0,44.0,-100.00,ESE,112,0.0,-999.0,93,-99.99,,,-99.99,0.000000,,2013-09-15 05:42:00,
2013-09-15 01:52:00,45.0,44.0,-100.00,ESE,112,0.0,-999.0,93,-99.99,,,-99.99,0.000000,,2013-09-15 05:52:00,
2013-09-15 02:00:00,46.0,44.0,-100.00,ESE,112,0.0,-999.0,92,-99.99,,,-99.99,0.000000,,2013-09-15 06:00:00,
2013-09-15 02:42:00,46.0,44.0,-100.00,ESE,112,0.0,-999.0,92,-99.99,,,-99.99,0.000000,,2013-09-15 06:42:00,
2013-09-15 02:52:00,46.0,44.0,-100.00,ESE,112,0.0,-999.0,92,-99.99,,,-99.99,0.000000,,2013-09-15 06:52:00,
2013-09-15 03:00:00,47.0,44.0,-100.00,ESE,112,0.0,-999.0,89,-99.99,,,-99.99,0.000000,,2013-09-15 07:00:00,
2013-09-15 03:42:00,47.0,44.0,-100.00,ESE,112,0.0,-999.0,89,-99.99,,,-99.99,0.000000,,2013-09-15 07:42:00,
2013-09-15 03:52:00,47.0,44.0,-100.00,ESE,112,0.0,-999.0,89,-99.99,,,-99.99,0.000000,,2013-09-15 07:52:00,
2013-09-15 04:00:00,48.0,43.0,-100.00,SE,135,1.0,-999.0,80,-99.99,,,-99.99,0.000000,,2013-09-15 08:00:00,
2013-09-15 04:43:00,48.0,43.0,-100.00,SE,135,1.0,-999.0,80,-99.99,,,-99.99,0.000000,,2013-09-15 08:43:00,
2013-09-15 04:52:00,48.0,43.0,-100.00,SE,135,1.0,-999.0,80,-99.99,,,-99.99,0.000000,,2013-09-15 08:52:00,
2013-09-15 05:00:00,51.0,42.0,-100.00,South,180,1.0,-999.0,69,-99.99,,,-99.99,0.000000,,2013-09-15 09:00:00,
2013-09-15 05:44:00,51.0,42.0,-100.00,South,180,1.0,-999.0,69,-99.99,,,-99.99,0.000000,,2013-09-15 09:44:00,
2013-09-15 05:53:00,51.0,42.0,-100.00,South,180,1.0,-999.0,69,-99.99,,,-99.99,0.000000,,2013-09-15 09:53:00,
2013-09-15 06:00:00,51.0,43.0,-100.00,SSE,157,1.0,-999.0,75,-99.99,,,-99.99,0.000000,,2013-09-15 10:00:00,
2013-09-15 06:43:00,51.0,43.0,-100.00,SSE,157,1.0,-999.0,75,-99.99,,,-99.99,0.000000,,2013-09-15 10:43:00,
2013-09-15 06:53:00,51.0,43.0,-100.00,SSE,157,1.0,-999.0,75,-99.99,,,-99.99,0.000000,,2013-09-15 10:53:00,
2013-09-15 07:00:00,50.0,46.0,-100.00,SE,135,0.0,-999.0,85,-99.99,,,-99.99,0.000000,,2013-09-15 11:00:00,
2013-09-15 07:42:00,50.0,46.0,-100.00,SE,135,0.0,-999.0,85,-99.99,,,-99.99,0.000000,,2013-09-15 11:42:00,
2013-09-15 07:52:00,50.0,46.0,-100.00,SE,135,0.0,-999.0,85,-99.99,,,-99.99,0.000000,,2013-09-15 11:52:00,
2013-09-15 08:00:00,50.0,46.0,-100.00,SE,135,1.0,-999.0,87,-99.99,,,-99.99,4.640000,,2013-09-15 12:00:00,
2013-09-15 08:42:00,50.0,46.0,-100.00,SE,135,1.0,-999.0,87,-99.99,,,-99.99,4.640000,,2013-09-15 12:42:00,
2013-09-15 08:52:00,50.0,46.0,-100.00,SE,135,1.0,-999.0,87,-99.99,,,-99.99,4.640000,,2013-09-15 12:52:00,
2013-09-15 09:00:00,53.0,45.0,-100.00,SSE,157,1.0,-999.0,74,-99.99,,,-99.99,27.840000,,2013-09-15 13:00:00,
2013-09-15 09:42:00,53.0,45.0,-100.00,SSE,157,1.0,-999.0,74,-99.99,,,-99.99,27.840000,,2013-09-15 13:42:00,
2013-09-15 09:53:00,53.0,45.0,-100.00,SSE,157,1.0,-999.0,74,-99.99,,,-99.99,27.840000,,2013-09-15 13:53:00,
2013-09-15 15:00:00,58.0,55.0,-100.00,SE,135,1.0,-999.0,88,-99.99,,,-99.99,117.160004,,2013-09-15 19:00:00,
2013-09-15 15:42:00,58.0,55.0,-100.00,SE,135,1.0,-999.0,88,-99.99,,,-99.99,117.160004,,2013-09-15 19:42:00,
2013-09-15 15:52:00,58.0,55.0,-100.00,SE,135,1.0,-999.0,88,-99.99,,,-99.99,117.160004,,2013-09-15 19:52:00,
2013-09-15 16:00:00,58.0,55.0,-100.00,ESE,112,1.0,-999.0,92,-99.99,,,-99.99,59.160000,,2013-09-15 20:00:00,
2013-09-15 16:42:00,58.0,55.0,-100.00,ESE,112,1.0,-999.0,92,-99.99,,,-99.99,59.160000,,2013-09-15 20:42:00,
2013-09-15 16:53:00,58.0,55.0,-100.00,ESE,112,1.0,-999.0,92,-99.99,,,-99.99,59.160000,,2013-09-15 20:53:00,
2013-09-15 18:00:00,56.0,54.0,-100.00,East,90,2.0,-999.0,95,-99.99,,,-99.99,44.080002,,2013-09-15 22:00:00,
2013-09-15 18:44:00,56.0,54.0,-100.00,East,90,2.0,-999.0,95,-99.99,,,-99.99,44.080002,,2013-09-15 22:44:00,
2013-09-15 18:53:00,56.0,54.0,-100.00,East,90,2.0,-999.0,95,-99.99,,,-99.99,44.080002,,2013-09-15 22:53:00,
2013-09-15 19:00:00,55.0,54.0,-100.00,East,90,1.0,-999.0,96,-99.99,,,-99.99,13.920000,,2013-09-15 23:00:00,
2013-09-15 19:42:00,55.0,54.0,-100.00,East,90,1.0,-999.0,96,-99.99,,,-99.99,13.920000,,2013-09-15 23:42:00,
2013-09-15 19:53:00,55.0,54.0,-100.00,East,90,1.0,-999.0,96,-99.99,,,-99.99,13.920000,,2013-09-15 23:53:00,
2013-09-15 20:00:00,55.0,54.0,-100.00,East,90,1.0,-999.0,96,-99.99,,,-99.99,4.640000,,2013-09-16 00:00:00,
2013-09-15 20:42:00,55.0,54.0,-100.00,East,90,1.0,-999.0,96,-99.99,,,-99.99,4.640000,,2013-09-16 00:42:00,
2013-09-15 20:52:00,55.0,54.0,-100.00,East,90,1.0,-999.0,96,-99.99,,,-99.99,4.640000,,2013-09-16 00:52:00,
2013-09-15 21:00:00,55.0,54.0,-100.00,East,90,1.0,-999.0,96,-99.99,,,-99.99,0.000000,,2013-09-16 01:00:00,
2013-09-15 21:42:00,55.0,54.0,-100.00,East,90,1.0,-999.0,96,-99.99,,,-99.99,0.000000,,2013-09-16 01:42:00,
2013-09-15 21:52:00,55.0,54.0,-100.00,East,90,1.0,-999.0,96,-99.99,,,-99.99,0.000000,,2013-09-16 01:52:00,
2013-09-15 22:00:00,55.0,54.0,-100.00,East,90,1.0,-999.0,96,-99.99,,,-99.99,1.160000,,2013-09-16 02:00:00,
2013-09-15 22:42:00,55.0,54.0,-100.00,East,90,1.0,-999.0,96,-99.99,,,-99.99,1.160000,,2013-09-16 02:42:00,
2013-09-15 22:52:00,55.0,54.0,-100.00,East,90,1.0,-999.0,96,-99.99,,,-99.99,1.160000,,2013-09-16 02:52:00,
2013-09-15 23:00:00,55.0,54.0,-100.00,East,90,1.0,-999.0,97,-99.99,,,-99.99,1.160000,,2013-09-16 03:00:00,
2013-09-15 23:45:00,55.0,54.0,-100.00,East,90,1.0,-999.0,97,-99.99,,,-99.99,1.160000,,2013-09-16 03:45:00,
2013-09-15 23:55:00,55.0,54.0,-100.00,East,90,1.0,-999.0,97,-99.99,,,-99.99,1.160000,,2013-09-16 03:55:00,